星链-2421 (STARLINK-2421 )

导读 | 豆包AI

STARLINK-2421是美国SpaceX星链(Starlink)项目的卫星,于2021年4月7日发射,属于星链星座中占比最高的V1.5版本卫星。它重约295公斤,采用紧凑型平板设计,单颗配备激光星间链路模块,支持卫星间直接通信,可降低对地面基站依赖,为全球用户提供高速宽带互联网服务,助力星链拓展偏远地区、海洋等区域的网络覆盖,提升星座整体通信性能。

基本信息
目录编号:
48098
目录名称:
STARLINK-2421
国际标识:
2021-027G
轨道中心:
EARTH
卫星名称:
星链-2421
卫星全名:
星链-2421 (STARLINK-2421 )
卫星状态:
在轨 (已飞行1849 天)
发射日期:
2021-04-07 UTC
国别 :
美国 (US)
星等 :
--
轨道信息
数据来源 国际轨道数据 AOE轨道数据
星历时间 2026-04-30T01:57:13+0800
19小时前
查看轨道信息
2026-04-30T08:00:00+0800
13小时前
查看轨道信息
半长轴 6848.88km 6848.849km
偏心率 0.0001243 0.000134
轨道倾角 53.160° 53.161°
近地点辐角 84.341° 73.579°
升交点赤经 277.573° 276.400°
平近点角 275.773° 236.507°
近地点 469.891km 469.794km
远地点 471.595km 471.63km
周期 94.013分钟 94.013分钟
每日圈数 15.316991 15.317097
详细信息
固有亮度:
5
最大亮度:
2.5
卫星平台:
Starlink V1.0
覆盖范围:
全球
运营商:
太空探索技术公司
运营商所在国:
美国
制造商(研发单位):
太空探索技术公司
制造商所在国:
美国
使用方式:
暂无
卫星简介
星链(Starlink)计划是由太空探索技术公司(SpaceX)提出的一个巨型低轨卫星互联网星座项目,计划在2019年至2024年间在太空搭建由约1.2万颗卫星组成的“星链”网络,其中1584颗将部署在地球上空550千米处的近地轨道,并从2020年开始工作。该卫星仍在工作。
2D轨道图
3D轨道图
轨道高度分析图
轨道倾角分析图
轨道综合分析图
查看轨道综合分析图